| time (UTC) | temp F | wind direction | speed MPH | gust MPH | rain 1hr in | rain 24hr in | rain mn in | humidity % | barometer mb |
| 20260508132330 | 67 | 87 | 1.0 | 3.0 | 0.00 | 0.00 | 0.00 | 32 | 1016.2 |
| 20260508131816 | 67 | 87 | 0.0 | 2.0 | 0.00 | 0.00 | 0.00 | 33 | 1016.2 |
| 20260508131326 | 66 | 87 | 0.0 | 2.0 | 0.00 | 0.00 | 0.00 | 34 | 1016.1 |
| 20260508130814 | 66 | 87 | 0.0 | 2.0 | 0.00 | 0.00 | 0.00 | 34 | 1016.1 |
| 20260508130325 | 66 | 87 | 0.0 | 0.0 | 0.00 | 0.00 | 0.00 | 34 | 1016.0 |
| 20260508125831 | 66 | 87 | 0.0 | 0.0 | 0.00 | 0.00 | 0.00 | 34 | 1015.9 |
| 20260508125322 | 66 | 87 | 0.0 | 3.0 | 0.00 | 0.00 | 0.00 | 33 | 1015.8 |
| 20260508124814 | 66 | 87 | 1.0 | 3.0 | 0.00 | 0.00 | 0.00 | 33 | 1015.7 |
| 20260508124325 | 66 | 87 | 0.0 | 2.0 | 0.00 | 0.00 | 0.00 | 33 | 1015.6 |
| 20260508123831 | 66 | 87 | 0.0 | 1.0 | 0.00 | 0.00 | 0.00 | 33 | 1015.6 |
| 20260508123322 | 66 | 87 | 0.0 | 1.0 | 0.00 | 0.00 | 0.00 | 33 | 1015.6 |
| 20260508122828 | 67 | 87 | 0.0 | 2.0 | 0.00 | 0.00 | 0.00 | 33 | 1015.5 |
| 20260508122319 | 67 | 87 | 0.0 | 2.0 | 0.00 | 0.00 | 0.00 | 32 | 1015.5 |
| 20260508121827 | 67 | 87 | 0.0 | 3.0 | 0.00 | 0.00 | 0.00 | 32 | 1015.4 |
| 20260508121319 | 67 | 87 | 1.0 | 4.0 | 0.00 | 0.00 | 0.00 | 32 | 1015.4 |
| 20260508120826 | 67 | 87 | 1.0 | 4.0 | 0.00 | 0.00 | 0.00 | 31 | 1015.5 |
| 20260508120320 | 67 | 87 | 2.0 | 3.0 | 0.00 | 0.00 | 0.00 | 31 | 1015.4 |
| 20260508115827 | 67 | 87 | 1.0 | 3.0 | 0.00 | 0.00 | 0.00 | 32 | 1015.4 |
| 20260508115318 | 67 | 87 | 0.0 | 3.0 | 0.00 | 0.00 | 0.00 | 32 | 1015.5 |
| 20260508114824 | 67 | 87 | 1.0 | 4.0 | 0.00 | 0.00 | 0.00 | 32 | 1015.4 |
| 20260508114315 | 67 | 87 | 1.0 | 4.0 | 0.00 | 0.00 | 0.00 | 31 | 1015.4 |
| 20260508113822 | 67 | 86 | 2.0 | 3.0 | 0.00 | 0.00 | 0.00 | 31 | 1015.4 |
| 20260508113353 | 67 | 86 | 1.0 | 2.0 | 0.00 | 0.00 | 0.00 | 33 | 1015.3 |
| 20260508112839 | 68 | 86 | 1.0 | 4.0 | 0.00 | 0.00 | 0.00 | 32 | 1015.3 |
| 20260508112328 | 68 | 86 | 2.0 | 4.0 | 0.00 | 0.00 | 0.00 | 32 | 1015.3 |
| 20260508111815 | 68 | 86 | 1.0 | 3.0 | 0.00 | 0.00 | 0.00 | 32 | 1015.3 |
| 20260508111326 | 68 | 86 | 2.0 | 3.0 | 0.00 | 0.00 | 0.00 | 32 | 1015.2 |
| 20260508110833 | 68 | 86 | 0.0 | 3.0 | 0.00 | 0.00 | 0.00 | 33 | 1015.2 |
| 20260508110328 | 68 | 86 | 1.0 | 3.0 | 0.00 | 0.00 | 0.00 | 33 | 1015.2 |
| 20260508105814 | 68 | 86 | 1.0 | 3.0 | 0.00 | 0.00 | 0.00 | 33 | 1015.2 |
| 20260508105325 | 68 | 86 | 0.0 | 2.0 | 0.00 | 0.00 | 0.00 | 33 | 1015.2 |
| 20260508104813 | 68 | 86 | 0.0 | 2.0 | 0.00 | 0.00 | 0.00 | 33 | 1015.1 |
| 20260508104324 | 68 | 86 | 0.0 | 2.0 | 0.00 | 0.00 | 0.00 | 32 | 1015.1 |
| 20260508103831 | 69 | 86 | 0.0 | 2.0 | 0.00 | 0.00 | 0.00 | 31 | 1015.1 |
| 20260508103322 | 69 | 86 | 1.0 | 3.0 | 0.00 | 0.00 | 0.00 | 30 | 1015.1 |
| 20260508102829 | 69 | 86 | 1.0 | 3.0 | 0.00 | 0.00 | 0.00 | 30 | 1015.1 |
| 20260508102341 | 69 | 86 | 1.0 | 3.0 | 0.00 | 0.00 | 0.00 | 30 | 1015.1 |
| 20260508101826 | 69 | 86 | 1.0 | 3.0 | 0.00 | 0.00 | 0.00 | 29 | 1015.1 |
| 20260508101321 | 69 | 86 | 1.0 | 3.0 | 0.00 | 0.00 | 0.00 | 29 | 1015.0 |
| 20260508100829 | 69 | 85 | 1.0 | 3.0 | 0.00 | 0.00 | 0.00 | 29 | 1015.0 |
| 20260508100341 | 69 | 85 | 1.0 | 2.0 | 0.00 | 0.00 | 0.00 | 30 | 1014.8 |
| 20260508095826 | 69 | 85 | 1.0 | 2.0 | 0.00 | 0.00 | 0.00 | 29 | 1014.8 |
| 20260508095317 | 69 | 85 | 0.0 | 3.0 | 0.00 | 0.00 | 0.00 | 29 | 1014.8 |
| 20260508094824 | 69 | 85 | 2.0 | 3.0 | 0.00 | 0.00 | 0.00 | 28 | 1014.7 |
| 20260508094315 | 69 | 85 | 1.0 | 3.0 | 0.00 | 0.00 | 0.00 | 29 | 1014.8 |
| 20260508093821 | 69 | 85 | 0.0 | 4.0 | 0.00 | 0.00 | 0.00 | 28 | 1014.8 |
| 20260508093353 | 69 | 80 | 2.0 | 4.0 | 0.00 | 0.00 | 0.00 | 28 | 1014.8 |
| 20260508092818 | 69 | 80 | 2.0 | 4.0 | 0.00 | 0.00 | 0.00 | 28 | 1014.8 |
| 20260508092314 | 70 | 80 | 2.0 | 4.0 | 0.00 | 0.00 | 0.00 | 28 | 1014.8 |
| 20260508091821 | 70 | 80 | 2.0 | 5.0 | 0.00 | 0.00 | 0.00 | 28 | 1014.8 |
| 20260508091332 | 70 | 84 | 2.0 | 6.0 | 0.00 | 0.00 | 0.00 | 28 | 1014.8 |
| 20260508090820 | 70 | 84 | 2.0 | 4.0 | 0.00 | 0.00 | 0.00 | 27 | 1014.9 |
| 20260508090332 | 70 | 83 | 2.0 | 5.0 | 0.00 | 0.00 | 0.00 | 27 | 1014.9 |
| 20260508085820 | 70 | 82 | 2.0 | 5.0 | 0.00 | 0.00 | 0.00 | 26 | 1015.0 |
| 20260508085330 | 70 | 82 | 1.0 | 5.0 | 0.00 | 0.00 | 0.00 | 26 | 1015.0 |
| 20260508084817 | 70 | 89 | 2.0 | 6.0 | 0.00 | 0.00 | 0.00 | 25 | 1015.0 |
| 20260508084328 | 70 | 94 | 3.0 | 6.0 | 0.00 | 0.00 | 0.00 | 24 | 1015.0 |
| 20260508083820 | 70 | 84 | 3.0 | 5.0 | 0.00 | 0.00 | 0.00 | 23 | 1015.0 |
| 20260508083329 | 71 | 82 | 1.0 | 5.0 | 0.00 | 0.00 | 0.00 | 21 | 1015.0 |
| 20260508082817 | 71 | 83 | 2.0 | 6.0 | 0.00 | 0.00 | 0.00 | 19 | 1015.0 |
| 20260508082327 | 70 | 86 | 3.0 | 6.0 | 0.00 | 0.00 | 0.00 | 18 | 1015.1 |
| 20260508081815 | 70 | 103 | 3.0 | 6.0 | 0.00 | 0.00 | 0.00 | 18 | 1015.0 |
| 20260508081326 | 70 | 107 | 3.0 | 6.0 | 0.00 | 0.00 | 0.00 | 17 | 1015.1 |
| 20260508080814 | 70 | 128 | 3.0 | 4.0 | 0.00 | 0.00 | 0.00 | 17 | 1015.0 |
| 20260508080324 | 70 | 130 | 1.0 | 4.0 | 0.00 | 0.00 | 0.00 | 19 | 1015.0 |
| 20260508075830 | 70 | 170 | 2.0 | 4.0 | 0.00 | 0.00 | 0.00 | 19 | 1015.0 |
| 20260508075324 | 71 | 196 | 1.0 | 2.0 | 0.00 | 0.00 | 0.00 | 19 | 1015.0 |
| 20260508074832 | 71 | 196 | 0.0 | 3.0 | 0.00 | 0.00 | 0.00 | 19 | 1015.0 |
| 20260508074323 | 71 | 196 | 1.0 | 3.0 | 0.00 | 0.00 | 0.00 | 19 | 1015.0 |
| 20260508073831 | 71 | 204 | 1.0 | 3.0 | 0.00 | 0.00 | 0.00 | 19 | 1015.0 |
| 20260508073341 | 71 | 209 | 1.0 | 2.0 | 0.00 | 0.00 | 0.00 | 19 | 1015.0 |
| 20260508072827 | 70 | 209 | 0.0 | 3.0 | 0.00 | 0.00 | 0.00 | 20 | 1015.0 |
| 20260508072318 | 70 | 209 | 1.0 | 3.0 | 0.00 | 0.00 | 0.00 | 20 | 1015.0 |
| 20260508071845 | 70 | 209 | 0.0 | 0.0 | 0.00 | 0.00 | 0.00 | 22 | 1015.1 |
| 20260508071315 | 70 | 209 | 0.0 | 2.0 | 0.00 | 0.00 | 0.00 | 23 | 1015.0 |
| 20260508070823 | 70 | 209 | 0.0 | 2.0 | 0.00 | 0.00 | 0.00 | 24 | 1014.9 |
| 20260508070320 | 70 | 209 | 1.0 | 2.0 | 0.00 | 0.00 | 0.00 | 25 | 1014.8 |
| 20260508065827 | 70 | 223 | 0.0 | 1.0 | 0.00 | 0.00 | 0.00 | 25 | 1014.7 |
| 20260508065319 | 70 | 223 | 0.0 | 0.0 | 0.00 | 0.00 | 0.00 | 25 | 1014.7 |
| 20260508064825 | 70 | 223 | 0.0 | 0.0 | 0.00 | 0.00 | 0.00 | 25 | 1014.7 |
| 20260508064316 | 71 | 223 | 0.0 | 0.0 | 0.00 | 0.00 | 0.00 | 25 | 1014.7 |
| 20260508063823 | 71 | 223 | 0.0 | 0.0 | 0.00 | 0.00 | 0.00 | 24 | 1014.8 |
| 20260508063334 | 71 | 223 | 0.0 | 0.0 | 0.00 | 0.00 | 0.00 | 24 | 1014.8 |
| 20260508062818 | 71 | 223 | 0.0 | 0.0 | 0.00 | 0.00 | 0.00 | 25 | 1014.8 |
| 20260508062330 | 72 | 223 | 0.0 | 0.0 | 0.00 | 0.00 | 0.00 | 24 | 1014.8 |
| 20260508061820 | 72 | 223 | 0.0 | 1.0 | 0.00 | 0.00 | 0.00 | 24 | 1014.7 |
| 20260508061331 | 72 | 223 | 0.0 | 2.0 | 0.00 | 0.00 | 0.00 | 24 | 1014.7 |
| 20260508060818 | 72 | 223 | 0.0 | 2.0 | 0.00 | 0.00 | 0.00 | 25 | 1014.7 |
| 20260508060330 | 72 | 223 | 0.0 | 1.0 | 0.00 | 0.00 | 0.00 | 25 | 1014.7 |
| 20260508055816 | 73 | 223 | 0.0 | 0.0 | 0.00 | 0.00 | 0.00 | 25 | 1014.7 |
| 20260508055326 | 73 | 223 | 0.0 | 1.0 | 0.00 | 0.00 | 0.00 | 25 | 1014.6 |
| 20260508054832 | 73 | 223 | 0.0 | 1.0 | 0.00 | 0.00 | 0.00 | 25 | 1014.6 |
| 20260508054323 | 73 | 223 | 0.0 | 1.0 | 0.00 | 0.00 | 0.00 | 26 | 1014.6 |
| 20260508053829 | 73 | 223 | 0.0 | 1.0 | 0.00 | 0.00 | 0.00 | 25 | 1014.6 |
| 20260508053320 | 74 | 223 | 0.0 | 1.0 | 0.00 | 0.00 | 0.00 | 26 | 1014.6 |
| 20260508052831 | 74 | 223 | 0.0 | 1.0 | 0.00 | 0.00 | 0.00 | 26 | 1014.6 |
| 20260508052342 | 74 | 223 | 0.0 | 1.0 | 0.00 | 0.00 | 0.00 | 25 | 1014.5 |
| 20260508051828 | 75 | 223 | 0.0 | 1.0 | 0.00 | 0.00 | 0.00 | 24 | 1014.5 |
| 20260508051319 | 75 | 223 | 0.0 | 0.0 | 0.00 | 0.00 | 0.00 | 24 | 1014.4 |
| 20260508050826 | 75 | 223 | 0.0 | 0.0 | 0.00 | 0.00 | 0.00 | 23 | 1014.4 |
| 20260508050318 | 75 | 223 | 0.0 | 0.0 | 0.00 | 0.00 | 0.00 | 23 | 1014.4 |
| 20260508045824 | 76 | 223 | 0.0 | 0.0 | 0.00 | 0.00 | 0.00 | 23 | 1014.4 |
| 20260508045315 | 76 | 223 | 0.0 | 0.0 | 0.00 | 0.00 | 0.00 | 23 | 1014.3 |
| 20260508044843 | 77 | 223 | 0.0 | 0.0 | 0.00 | 0.00 | 0.00 | 22 | 1014.3 |
| 20260508044313 | 77 | 223 | 0.0 | 0.0 | 0.00 | 0.00 | 0.00 | 21 | 1014.2 |
| 20260508043820 | 77 | 223 | 0.0 | 0.0 | 0.00 | 0.00 | 0.00 | 20 | 1014.1 |
| 20260508043315 | 78 | 223 | 0.0 | 0.0 | 0.00 | 0.00 | 0.00 | 20 | 1014.1 |
| 20260508042822 | 78 | 223 | 0.0 | 0.0 | 0.00 | 0.00 | 0.00 | 19 | 1014.0 |
| 20260508042313 | 79 | 223 | 0.0 | 0.0 | 0.00 | 0.00 | 0.00 | 19 | 1014.0 |
| 20260508041819 | 79 | 223 | 0.0 | 0.0 | 0.00 | 0.00 | 0.00 | 18 | 1014.0 |
| 20260508041350 | 79 | 223 | 0.0 | 0.0 | 0.00 | 0.00 | 0.00 | 18 | 1013.9 |
| 20260508040816 | 80 | 223 | 0.0 | 0.0 | 0.00 | 0.00 | 0.00 | 16 | 1013.9 |
| 20260508040327 | 80 | 223 | 0.0 | 0.0 | 0.00 | 0.00 | 0.00 | 16 | 1013.9 |
| 20260508035814 | 81 | 223 | 0.0 | 0.0 | 0.00 | 0.00 | 0.00 | 17 | 1013.9 |
| 20260508035325 | 81 | 223 | 0.0 | 0.0 | 0.00 | 0.00 | 0.00 | 16 | 1013.8 |
| 20260508034832 | 82 | 223 | 0.0 | 0.0 | 0.00 | 0.00 | 0.00 | 15 | 1013.7 |
| 20260508034322 | 83 | 223 | 0.0 | 0.0 | 0.00 | 0.00 | 0.00 | 15 | 1013.5 |
| 20260508033813 | 83 | 223 | 0.0 | 0.0 | 0.00 | 0.00 | 0.00 | 14 | 1013.4 |
| 20260508033324 | 83 | 223 | 0.0 | 0.0 | 0.00 | 0.00 | 0.00 | 12 | 1013.4 |
| 20260508032829 | 84 | 223 | 0.0 | 3.0 | 0.00 | 0.00 | 0.00 | 11 | 1013.3 |
| 20260508032320 | 84 | 223 | 1.0 | 3.0 | 0.00 | 0.00 | 0.00 | 10 | 1013.2 |
| 20260508031827 | 85 | 223 | 2.0 | 3.0 | 0.00 | 0.00 | 0.00 | 10 | 1013.2 |
| 20260508031338 | 85 | 223 | 0.0 | 3.0 | 0.00 | 0.00 | 0.00 | 9 | 1013.1 |
| 20260508030824 | 86 | 223 | 1.0 | 3.0 | 0.00 | 0.00 | 0.00 | 9 | 1013.1 |
| 20260508030315 | 86 | 223 | 1.0 | 4.0 | 0.00 | 0.00 | 0.00 | 8 | 1013.0 |
| 20260508025821 | 86 | 223 | 1.0 | 4.0 | 0.00 | 0.00 | 0.00 | 8 | 1012.9 |
| 20260508025332 | 87 | 223 | 0.0 | 2.0 | 0.00 | 0.00 | 0.00 | 8 | 1012.8 |
| 20260508024819 | 87 | 223 | 0.0 | 3.0 | 0.00 | 0.00 | 0.00 | 7 | 1012.8 |
| 20260508024314 | 88 | 223 | 1.0 | 3.0 | 0.00 | 0.00 | 0.00 | 7 | 1012.7 |
| 20260508023842 | 88 | 223 | 1.0 | 4.0 | 0.00 | 0.00 | 0.00 | 6 | 1012.6 |
| 20260508023332 | 88 | 223 | 2.0 | 6.0 | 0.00 | 0.00 | 0.00 | 6 | 1012.5 |
| 20260508022839 | 89 | 223 | 3.0 | 6.0 | 0.00 | 0.00 | 0.00 | 6 | 1012.5 |
| 20260508022329 | 89 | 232 | 3.0 | 7.0 | 0.00 | 0.00 | 0.00 | 6 | 1012.5 |
| 20260508021815 | 89 | 233 | 3.0 | 7.0 | 0.00 | 0.00 | 0.00 | 6 | 1012.4 |
| 20260508021346 | 89 | 225 | 2.0 | 6.0 | 0.00 | 0.00 | 0.00 | 6 | 1012.4 |
| 20260508020832 | 90 | 221 | 3.0 | 7.0 | 0.00 | 0.00 | 0.00 | 6 | 1012.3 |
| 20260508020342 | 90 | 224 | 2.0 | 7.0 | 0.00 | 0.00 | 0.00 | 6 | 1012.3 |
| 20260508015828 | 90 | 223 | 3.0 | 6.0 | 0.00 | 0.00 | 0.00 | 6 | 1012.3 |
| 20260508015319 | 91 | 229 | 3.0 | 6.0 | 0.00 | 0.00 | 0.00 | 6 | 1012.2 |
| 20260508014825 | 91 | 229 | 2.0 | 7.0 | 0.00 | 0.00 | 0.00 | 5 | 1012.1 |
| 20260508014315 | 92 | 229 | 3.0 | 11.0 | 0.00 | 0.00 | 0.00 | 5 | 1012.2 |
| 20260508013826 | 92 | 273 | 4.0 | 11.0 | 0.00 | 0.00 | 0.00 | 5 | 1012.0 |
| 20260508013316 | 93 | 236 | 3.0 | 8.0 | 0.00 | 0.00 | 0.00 | 5 | 1012.1 |
| 20260508012823 | 94 | 227 | 1.0 | 6.0 | 0.00 | 0.00 | 0.00 | 5 | 1012.1 |
| 20260508012313 | 94 | 225 | 3.0 | 6.0 | 0.00 | 0.00 | 0.00 | 4 | 1012.0 |
| 20260508011820 | 95 | 223 | 3.0 | 6.0 | 0.00 | 0.00 | 0.00 | 4 | 1012.0 |
| 20260508011331 | 95 | 205 | 3.0 | 10.0 | 0.00 | 0.00 | 0.00 | 4 | 1012.0 |
| 20260508010818 | 96 | 244 | 4.0 | 13.0 | 0.00 | 0.00 | 0.00 | 4 | 1012.0 |
| 20260508010330 | 96 | 274 | 5.0 | 13.0 | 0.00 | 0.00 | 0.00 | 4 | 1012.0 |
| 20260508005816 | 96 | 281 | 2.0 | 11.0 | 0.00 | 0.00 | 0.00 | 4 | 1011.9 |
| 20260508005327 | 96 | 251 | 3.0 | 8.0 | 0.00 | 0.00 | 0.00 | 3 | 1011.9 |
| 20260508004818 | 97 | 263 | 4.0 | 10.0 | 0.00 | 0.00 | 0.00 | 3 | 1011.9 |
| 20260508004329 | 97 | 230 | 4.0 | 10.0 | 0.00 | 0.00 | 0.00 | 3 | 1011.9 |
| 20260508003816 | 98 | 244 | 3.0 | 12.0 | 0.00 | 0.00 | 0.00 | 4 | 1011.9 |
| 20260508003347 | 98 | 240 | 3.0 | 12.0 | 0.00 | 0.00 | 0.00 | 3 | 1012.0 |
| 20260508002852 | 98 | 209 | 2.0 | 7.0 | 0.00 | 0.00 | 0.00 | 3 | 1011.9 |
| 20260508002322 | 98 | 231 | 3.0 | 7.0 | 0.00 | 0.00 | 0.00 | 4 | 1012.0 |
| 20260508001828 | 98 | 169 | 2.0 | 9.0 | 0.00 | 0.00 | 0.00 | 4 | 1011.9 |
| 20260508001319 | 98 | 236 | 4.0 | 9.0 | 0.00 | 0.00 | 0.00 | 4 | 1011.9 |
| 20260508000825 | 98 | 188 | 3.0 | 9.0 | 0.00 | 0.00 | 0.00 | 4 | 1011.9 |
| 20260508000316 | 98 | 221 | 4.0 | 9.0 | 0.00 | 0.00 | 0.00 | 4 | 1011.9 |
| 20260507235823 | 98 | 180 | 2.0 | 6.0 | 0.00 | 0.00 | 0.00 | 4 | 1012.0 |
| 20260507235314 | 97 | 253 | 1.0 | 11.0 | 0.00 | 0.00 | 0.00 | 3 | 1012.0 |
| 20260507234825 | 97 | 255 | 5.0 | 11.0 | 0.00 | 0.00 | 0.00 | 2 | 1012.0 |
| 20260507234316 | 98 | 193 | 5.0 | 12.0 | 0.00 | 0.00 | 0.00 | 3 | 1012.0 |
| 20260507233823 | 98 | 171 | 5.0 | 9.0 | 0.00 | 0.00 | 0.00 | 4 | 1012.1 |
| 20260507233313 | 98 | 198 | 2.0 | 6.0 | 0.00 | 0.00 | 0.00 | 4 | 1012.1 |
| 20260507232820 | 98 | 242 | 1.0 | 7.0 | 0.00 | 0.00 | 0.00 | 3 | 1012.1 |
| 20260507232331 | 98 | 242 | 3.0 | 7.0 | 0.00 | 0.00 | 0.00 | 3 | 1012.1 |
| 20260507231817 | 98 | 229 | 2.0 | 8.0 | 0.00 | 0.00 | 0.00 | 3 | 1012.2 |
| 20260507231328 | 98 | 234 | 4.0 | 10.0 | 0.00 | 0.00 | 0.00 | 3 | 1012.3 |
| 20260507230815 | 98 | 244 | 3.0 | 9.0 | 0.00 | 0.00 | 0.00 | 4 | 1012.3 |
| 20260507230327 | 97 | 231 | 2.0 | 5.0 | 0.00 | 0.00 | 0.00 | 3 | 1012.3 |
| 20260507225838 | 97 | 232 | 1.0 | 8.0 | 0.00 | 0.00 | 0.00 | 4 | 1012.3 |
| 20260507225328 | 97 | 233 | 4.0 | 11.0 | 0.00 | 0.00 | 0.00 | 5 | 1012.5 |
| 20260507224815 | 97 | 223 | 4.0 | 12.0 | 0.00 | 0.00 | 0.00 | 4 | 1012.5 |
| 20260507224326 | 97 | 213 | 2.0 | 12.0 | 0.00 | 0.00 | 0.00 | 5 | 1012.6 |
| 20260507223853 | 97 | 217 | 4.0 | 12.0 | 0.00 | 0.00 | 0.00 | 4 | 1012.6 |
| 20260507223323 | 97 | 252 | 3.0 | 10.0 | 0.00 | 0.00 | 0.00 | 5 | 1012.7 |
| 20260507222830 | 97 | 294 | 5.0 | 13.0 | 0.00 | 0.00 | 0.00 | 4 | 1012.7 |
| 20260507222321 | 97 | 198 | 5.0 | 13.0 | 0.00 | 0.00 | 0.00 | 5 | 1012.7 |
| 20260507221828 | 97 | 246 | 5.0 | 10.0 | 0.00 | 0.00 | 0.00 | 4 | 1012.8 |
| 20260507221318 | 98 | 288 | 3.0 | 7.0 | 0.00 | 0.00 | 0.00 | 5 | 1012.8 |
| 20260507220828 | 98 | 195 | 4.0 | 7.0 | 0.00 | 0.00 | 0.00 | 4 | 1012.9 |
| 20260507220319 | 98 | 283 | 3.0 | 7.0 | 0.00 | 0.00 | 0.00 | 4 | 1012.9 |
| 20260507215826 | 98 | 221 | 3.0 | 6.0 | 0.00 | 0.00 | 0.00 | 4 | 1013.1 |
| 20260507215336 | 98 | 181 | 1.0 | 6.0 | 0.00 | 0.00 | 0.00 | 5 | 1013.2 |
| 20260507214822 | 98 | 180 | 1.0 | 8.0 | 0.00 | 0.00 | 0.00 | 4 | 1013.2 |
| 20260507214313 | 97 | 167 | 3.0 | 8.0 | 0.00 | 0.00 | 0.00 | 5 | 1013.3 |
| 20260507213840 | 97 | 220 | 3.0 | 8.0 | 0.00 | 0.00 | 0.00 | 5 | 1013.4 |
| 20260507213330 | 97 | 188 | 2.0 | 8.0 | 0.00 | 0.00 | 0.00 | 4 | 1013.5 |
| 20260507212816 | 97 | 234 | 2.0 | 6.0 | 0.00 | 0.00 | 0.00 | 5 | 1013.5 |
| 20260507212327 | 96 | 212 | 4.0 | 9.0 | 0.00 | 0.00 | 0.00 | 5 | 1013.7 |
| 20260507211814 | 97 | 289 | 5.0 | 9.0 | 0.00 | 0.00 | 0.00 | 5 | 1013.8 |
| 20260507211329 | 97 | 221 | 3.0 | 6.0 | 0.00 | 0.00 | 0.00 | 5 | 1013.8 |
| 20260507210836 | 96 | 149 | 2.0 | 5.0 | 0.00 | 0.00 | 0.00 | 6 | 1013.9 |
| 20260507210327 | 96 | 180 | 1.0 | 7.0 | 0.00 | 0.00 | 0.00 | 5 | 1013.9 |
| 20260507205814 | 96 | 180 | 4.0 | 7.0 | 0.00 | 0.00 | 0.00 | 6 | 1014.1 |
| 20260507205325 | 95 | 211 | 2.0 | 8.0 | 0.00 | 0.00 | 0.00 | 7 | 1014.1 |
| 20260507204832 | 96 | 207 | 4.0 | 8.0 | 0.00 | 0.00 | 0.00 | 6 | 1014.2 |
| 20260507204323 | 96 | 180 | 3.0 | 7.0 | 0.00 | 0.00 | 0.00 | 5 | 1014.3 |
| 20260507203830 | 96 | 235 | 3.0 | 8.0 | 0.00 | 0.00 | 0.00 | 6 | 1014.3 |
| 20260507203321 | 96 | 259 | 4.0 | 8.0 | 0.00 | 0.00 | 0.00 | 6 | 1014.4 |
| 20260507202828 | 96 | 261 | 3.0 | 8.0 | 0.00 | 0.00 | 0.00 | 6 | 1014.4 |
| 20260507202323 | 96 | 242 | 2.0 | 7.0 | 0.00 | 0.00 | 0.00 | 6 | 1014.5 |
| 20260507201830 | 95 | 249 | 1.0 | 4.0 | 0.00 | 0.00 | 0.00 | 6 | 1014.6 |
| 20260507201321 | 95 | 251 | 2.0 | 7.0 | 0.00 | 0.00 | 0.00 | 5 | 1014.6 |
| 20260507200848 | 94 | 251 | 2.0 | 8.0 | 0.00 | 0.00 | 0.00 | 5 | 1014.8 |
| 20260507200318 | 94 | 257 | 3.0 | 8.0 | 0.00 | 0.00 | 0.00 | 6 | 1014.8 |
| 20260507195825 | 94 | 286 | 4.0 | 8.0 | 0.00 | 0.00 | 0.00 | 6 | 1014.9 |
| 20260507195315 | 93 | 215 | 1.0 | 6.0 | 0.00 | 0.00 | 0.00 | 6 | 1014.9 |
| 20260507194822 | 93 | 215 | 3.0 | 8.0 | 0.00 | 0.00 | 0.00 | 6 | 1015.1 |
| 20260507194331 | 93 | 211 | 3.0 | 8.0 | 0.00 | 0.00 | 0.00 | 6 | 1015.1 |
| 20260507193817 | 93 | 180 | 1.0 | 8.0 | 0.00 | 0.00 | 0.00 | 7 | 1015.2 |
| 20260507193328 | 94 | 178 | 5.0 | 8.0 | 0.00 | 0.00 | 0.00 | 7 | 1015.2 |
| 20260507192819 | 94 | 166 | 2.0 | 5.0 | 0.00 | 0.00 | 0.00 | 6 | 1015.4 |
| 20260507192330 | 93 | 150 | 1.0 | 3.0 | 0.00 | 0.00 | 0.00 | 6 | 1015.5 |
| 20260507191817 | 92 | 150 | 1.0 | 5.0 | 0.00 | 0.00 | 0.00 | 6 | 1015.6 |
| 20260507191328 | 92 | 150 | 0.0 | 5.0 | 0.00 | 0.00 | 0.00 | 7 | 1015.6 |
| 20260507190835 | 91 | 232 | 0.0 | 3.0 | 0.00 | 0.00 | 0.00 | 8 | 1015.8 |
| 20260507190324 | 91 | 232 | 2.0 | 6.0 | 0.00 | 0.00 | 0.00 | 8 | 1015.9 |
| 20260507185831 | 91 | 232 | 1.0 | 6.0 | 0.00 | 0.00 | 0.00 | 8 | 1016.0 |
| 20260507185322 | 91 | 190 | 1.0 | 4.0 | 0.00 | 0.00 | 0.00 | 9 | 1016.0 |
| 20260507184829 | 90 | 190 | 1.0 | 4.0 | 0.00 | 0.00 | 0.00 | 9 | 1016.0 |
| 20260507184320 | 90 | 190 | 0.0 | 8.0 | 0.00 | 0.00 | 0.00 | 9 | 1016.1 |
| 20260507183831 | 89 | 186 | 0.0 | 4.0 | 0.00 | 0.00 | 0.00 | 10 | 1016.2 |
| 20260507183322 | 88 | 186 | 1.0 | 7.0 | 0.00 | 0.00 | 0.00 | 11 | 1016.3 |
| 20260507182829 | 88 | 204 | 2.0 | 7.0 | 0.00 | 0.00 | 0.00 | 10 | 1016.4 |
| 20260507182320 | 88 | 246 | 2.0 | 4.0 | 0.00 | 0.00 | 0.00 | 9 | 1016.4 |
| 20260507181827 | 88 | 331 | 1.0 | 4.0 | 0.00 | 0.00 | 0.00 | 10 | 1016.4 |
| 20260507181338 | 87 | 338 | 1.0 | 5.0 | 0.00 | 0.00 | 0.00 | 9 | 1016.6 |
| 20260507180824 | 87 | 246 | 3.0 | 7.0 | 0.00 | 0.00 | 0.00 | 10 | 1016.6 |
| 20260507180315 | 87 | 242 | 3.0 | 7.0 | 0.00 | 0.00 | 0.00 | 11 | 1016.7 |
| 20260507175842 | 87 | 250 | 3.0 | 6.0 | 0.00 | 0.00 | 0.00 | 11 | 1016.7 |
| 20260507175332 | 87 | 201 | 2.0 | 4.0 | 0.00 | 0.00 | 0.00 | 11 | 1016.8 |
| 20260507174823 | 86 | 201 | 1.0 | 5.0 | 0.00 | 0.00 | 0.00 | 11 | 1016.9 |
| 20260507174334 | 86 | 200 | 2.0 | 5.0 | 0.00 | 0.00 | 0.00 | 12 | 1016.8 |
| 20260507173820 | 86 | 211 | 3.0 | 5.0 | 0.00 | 0.00 | 0.00 | 14 | 1016.9 |
| 20260507173331 | 85 | 210 | 1.0 | 4.0 | 0.00 | 0.00 | 0.00 | 13 | 1016.9 |
| 20260507172818 | 85 | 210 | 1.0 | 3.0 | 0.00 | 0.00 | 0.00 | 15 | 1017.0 |
| 20260507172329 | 84 | 210 | 1.0 | 3.0 | 0.00 | 0.00 | 0.00 | 13 | 1017.1 |
| 20260507171816 | 84 | 210 | 1.0 | 4.0 | 0.00 | 0.00 | 0.00 | 14 | 1017.1 |
| 20260507171326 | 83 | 210 | 2.0 | 5.0 | 0.00 | 0.00 | 0.00 | 14 | 1017.1 |
| 20260507170813 | 83 | 184 | 2.0 | 5.0 | 0.00 | 0.00 | 0.00 | 16 | 1017.2 |
| 20260507170345 | 82 | 184 | 2.0 | 5.0 | 0.00 | 0.00 | 0.00 | 16 | 1017.3 |
| 20260507165851 | 82 | 184 | 0.0 | 5.0 | 0.00 | 0.00 | 0.00 | 16 | 1017.2 |
| 20260507165321 | 81 | 184 | 2.0 | 5.0 | 0.00 | 0.00 | 0.00 | 16 | 1017.3 |
| 20260507164832 | 81 | 184 | 2.0 | 6.0 | 0.00 | 0.00 | 0.00 | 18 | 1017.3 |
| 20260507164323 | 81 | 184 | 3.0 | 6.0 | 0.00 | 0.00 | 0.00 | 18 | 1017.4 |
| 20260507163830 | 80 | 184 | 1.0 | 6.0 | 0.00 | 0.00 | 0.00 | 19 | 1017.4 |
| 20260507163321 | 80 | 184 | 1.0 | 6.0 | 0.00 | 0.00 | 0.00 | 22 | 1017.4 |
| 20260507162828 | 80 | 194 | 1.0 | 3.0 | 0.00 | 0.00 | 0.00 | 22 | 1017.4 |
| 20260507162318 | 79 | 194 | 2.0 | 6.0 | 0.00 | 0.00 | 0.00 | 22 | 1017.5 |
| 20260507161825 | 79 | 194 | 3.0 | 6.0 | 0.00 | 0.00 | 0.00 | 23 | 1017.5 |
| 20260507161315 | 79 | 159 | 2.0 | 5.0 | 0.00 | 0.00 | 0.00 | 23 | 1017.7 |
| 20260507160821 | 78 | 159 | 1.0 | 2.0 | 0.00 | 0.00 | 0.00 | 23 | 1017.7 |
| 20260507160316 | 78 | 159 | 0.0 | 2.0 | 0.00 | 0.00 | 0.00 | 24 | 1017.7 |
| 20260507155823 | 78 | 159 | 0.0 | 3.0 | 0.00 | 0.00 | 0.00 | 23 | 1017.8 |
| 20260507155334 | 77 | 159 | 1.0 | 2.0 | 0.00 | 0.00 | 0.00 | 24 | 1017.8 |
| 20260507154840 | 77 | 159 | 0.0 | 2.0 | 0.00 | 0.00 | 0.00 | 24 | 1017.8 |
| 20260507154330 | 77 | 159 | 0.0 | 2.0 | 0.00 | 0.00 | 0.00 | 24 | 1017.9 |
| 20260507153817 | 76 | 159 | 0.0 | 2.0 | 0.00 | 0.00 | 0.00 | 24 | 1017.8 |
| 20260507153328 | 76 | 159 | 0.0 | 2.0 | 0.00 | 0.00 | 0.00 | 25 | 1017.8 |
| 20260507152815 | 75 | 159 | 0.0 | 2.0 | 0.00 | 0.00 | 0.00 | 27 | 1017.8 |
| 20260507152324 | 75 | 159 | 1.0 | 3.0 | 0.00 | 0.00 | 0.00 | 26 | 1017.8 |
| 20260507151831 | 74 | 159 | 1.0 | 3.0 | 0.00 | 0.00 | 0.00 | 26 | 1017.8 |
| 20260507151322 | 73 | 159 | 1.0 | 4.0 | 0.00 | 0.00 | 0.00 | 28 | 1017.9 |
| 20260507150813 | 73 | 159 | 0.0 | 2.0 | 0.00 | 0.00 | 0.00 | 32 | 1017.9 |
| 20260507150323 | 72 | 159 | 0.0 | 3.0 | 0.00 | 0.00 | 0.00 | 28 | 1017.9 |
| 20260507145829 | 72 | 159 | 1.0 | 5.0 | 0.00 | 0.00 | 0.00 | 28 | 1017.9 |
| 20260507145320 | 71 | 161 | 1.0 | 4.0 | 0.00 | 0.00 | 0.00 | 30 | 1017.9 |
| 20260507144847 | 71 | 161 | 0.0 | 1.0 | 0.00 | 0.00 | 0.00 | 30 | 1017.9 |
| 20260507144317 | 70 | 161 | 0.0 | 3.0 | 0.00 | 0.00 | 0.00 | 30 | 1017.9 |
| 20260507143844 | 70 | 161 | 1.0 | 3.0 | 0.00 | 0.00 | 0.00 | 30 | 1018.0 |
| 20260507143314 | 70 | 161 | 0.0 | 3.0 | 0.00 | 0.00 | 0.00 | 32 | 1017.9 |
| 20260507142821 | 69 | 161 | 0.0 | 3.0 | 0.00 | 0.00 | 0.00 | 33 | 1017.8 |
| 20260507142332 | 69 | 163 | 1.0 | 4.0 | 0.00 | 0.00 | 0.00 | 34 | 1017.8 |
| 20260507141818 | 68 | 163 | 1.0 | 5.0 | 0.00 | 0.00 | 0.00 | 35 | 1017.7 |
| 20260507141314 | 68 | 163 | 1.0 | 5.0 | 0.00 | 0.00 | 0.00 | 36 | 1017.7 |
| 20260507140821 | 67 | 207 | 1.0 | 3.0 | 0.00 | 0.00 | 0.00 | 37 | 1017.7 |
| 20260507140332 | 66 | 207 | 0.0 | 3.0 | 0.00 | 0.00 | 0.00 | 40 | 1017.7 |
| 20260507135819 | 65 | 223 | 0.0 | 1.0 | 0.00 | 0.00 | 0.00 | 41 | 1017.7 |
| 20260507135330 | 64 | 223 | 0.0 | 0.0 | 0.00 | 0.00 | 0.00 | 44 | 1017.7 |
| 20260507134817 | 63 | 223 | 0.0 | 0.0 | 0.00 | 0.00 | 0.00 | 46 | 1017.6 |
| 20260507134328 | 62 | 223 | 0.0 | 0.0 | 0.00 | 0.00 | 0.00 | 47 | 1017.5 |
| 20260507133815 | 61 | 223 | 0.0 | 0.0 | 0.00 | 0.00 | 0.00 | 49 | 1017.4 |
| 20260507133325 | 61 | 223 | 0.0 | 0.0 | 0.00 | 0.00 | 0.00 | 50 | 1017.3 |
| 20260507132832 | 61 | 223 | 0.0 | 0.0 | 0.00 | 0.00 | 0.00 | 46 | 1017.3 |